Location: Stara Lesna
(49.1528°N, 20.2911°E)
Time: 03:36:35
(UTC+02:00)

Cosmos 1500 Rocket - Pass Details

Date: 13 July 2020
Orbit: 603 x 632 km, 82.5° (Epoch: 11 August)

Event Time Altitude Azimuth Distance (km) Brightness Sun altitude
Exits shadow 00:27:09 36° 214° (SW) 983 4.2 -18.9°
Maximum altitude 00:28:47 63° 282° (WNW) 689 3.8 -19.0°
Drops below altitude 10° 00:33:08 10° 4° (N) 1,978 7.4 -19.0°
Sets 00:35:23 0° 8° (N) 2,884 8.6 -19.0°
